Terminal Aerodrome Forecast
Issued by NWS

Home | Current Version | Previous Version | Text Only | Print | Product List | Glossary On
Versions: 1 2 3 4 5 6 7 8 9 10 11 12
000
FTUS43 KIWX 242338
TAFSBN
TAF
KSBN 242338Z 2500/2524 10010KT P6SM SCT250
     FM251000 14010KT P6SM SCT040 BKN140
     FM251800 16012G20KT P6SM SCT130=

USA.gov is the U.S. government's official web portal to all federal, state and local government web resources and services.